[[{"header":{"parameterUnit":"m.s-1","parameterCategory":2,"la1":30.2991,"la2":30.254,"lo1":-89.0895,"lo2":-89.0444,"dy":0.0017,"dx":0.0017,"nx":28,"ny":28,"refTime":"2024-05-25T03:00:00:Z","depth":"0","parameterNumber":2,"parameterNumberName":"U-component_of_CURRENTS"},"data":[0,0,0,0,0,0,0,0,0,0,0,0,0,0,0,0,0,0,0,0,0,0,0,0,0,0,0,0,0,0,0,0,0,0,0,0,0,0,0,0,0,0,0,0,0,0,0,0,0,0,0,0,0,0,0,0,0,0,-0.293,-0.2931,0,-0.296,-0.296,-0.296,-0.2934,-0.2933,-0.2932,-0.2932,-0.2885,-0.2885,-0.2884,0,0,0,0,0,0,0,0,0,0,0,0,0,-0.2838,-0.284,-0.293,-0.2931,-0.2932,-0.296,-0.296,-0.296,-0.2934,-0.2933,-0.2932,-0.2931,-0.2885,-0.2885,-0.2884,0,0,0,0,0,0,0,0,0,0,0,0,0,-0.2871,-0.284,-0.293,-0.2924,-0.2924,-0.296,-0.296,-0.296,-0.2934,-0.2933,-0.2932,-0.2931,-0.2885,-0.2885,-0.2884,-0.2903,0,0,-0.2882,-0.2881,0,0,0,0,0,0,0,0,-0.2869,-0.2874,-0.2925,-0.2925,-0.2925,-0.2945,-0.2911,-0.2938,-0.2934,-0.2927,-0.2932,-0.293,-0.2901,-0.2899,-0.2904,-0.2901,-0.2899,-0.2882,-0.2881,-0.2881,-0.2881,0,0,0,0,0,0,0,-0.2867,-0.2873,-0.2939,-0.2925,-0.2926,-0.2916,-0.2919,-0.2916,-0.2916,-0.2928,-0.2927,-0.2935,-0.29,-0.2905,-0.2902,-0.2898,-0.2882,-0.2881,-0.2881,-0.288,-0.2897,-0.2898,0,0,0,0,0,0,-0.2872,-0.2871,-0.2938,-0.294,-0.2897,-0.2919,-0.2922,-0.2937,-0.2918,-0.2916,-0.2936,-0.2934,-0.2906,-0.2903,-0.29,-0.292,-0.2881,-0.288,-0.288,-0.2896,-0.2897,-0.2898,0,0,0,0,0,0,-0.287,-0.2878,-0.2937,-0.2908,-0.2915,-0.2922,-0.2939,-0.2938,-0.2938,-0.2926,-0.2921,-0.2936,-0.2905,-0.2901,-0.2901,-0.2917,-0.288,-0.2879,-0.2895,-0.2896,-0.2897,-0.2959,0,0,0,0,0,0,-0.2867,-0.2877,-0.2885,-0.2909,-0.2917,-0.2961,-0.294,-0.294,-0.2947,-0.2944,-0.2925,-0.292,-0.2904,-0.2902,-0.29,-0.2916,-0.2879,-0.2894,-0.2895,-0.2897,-0.2956,-0.2962,-0.2968,0,0,0,0,0,-0.2864,-0.2883,-0.2885,-0.2893,-0.2929,-0.2962,-0.2965,-0.2963,-0.2948,-0.2956,-0.2943,-0.292,-0.2911,-0.2903,-0.29,-0.2916,-0.2893,-0.2895,-0.2897,-0.2953,-0.2961,-0.2968,0,0,0,0,0,0,-0.2842,-0.2883,-0.2886,-0.2914,-0.2937,-0.2958,-0.2965,-0.2966,-0.2964,-0.2956,-0.2934,-0.2929,-0.2935,-0.2918,-0.291,-0.2925,-0.2897,-0.2899,-0.2941,-0.2948,-0.2954,-0.2958,-0.2878,0,0,0,0,0,-0.2844,-0.2866,-0.2903,-0.2921,-0.2936,-0.295,-0.296,-0.2966,-0.2971,-0.2969,-0.2956,-0.2944,-0.2944,-0.294,-0.2934,-0.2945,-0.2917,-0.2952,-0.2958,-0.2963,-0.2965,-0.2952,-0.2957,-0.2905,-0.2905,-0.2904,0,0,-0.2836,-0.2864,-0.2872,-0.2917,-0.2931,-0.2967,-0.2952,-0.2975,-0.2998,-0.2964,-0.2977,-0.2964,-0.2952,-0.2965,-0.2965,-0.295,-0.2961,-0.2966,-0.297,-0.2969,-0.2955,-0.296,-0.2964,-0.2906,-0.2906,-0.2905,0,0,-0.2841,-0.2861,-0.2884,-0.2916,-0.2953,-0.2971,-0.298,-0.3006,-0.3009,-0.3029,-0.301,-0.3009,-0.3005,-0.3004,-0.3002,-0.3038,-0.2994,-0.3033,-0.3066,-0.3055,-0.3059,-0.3062,-0.3021,-0.302,-0.3035,-0.3035,-0.3035,0,-0.2828,-0.287,-0.2894,-0.2935,-0.2961,-0.2976,-0.3011,-0.303,-0.3049,-0.3053,-0.3037,-0.3038,-0.3027,-0.3046,-0.306,-0.3053,-0.3026,-0.3041,-0.3062,-0.3065,-0.3068,-0.3025,-0.3023,-0.3039,-0.3038,-0.3038,-0.3038,0,-0.2861,-0.2897,-0.2915,-0.2972,-0.3003,-0.3035,-0.3075,-0.3093,-0.3095,-0.3105,-0.3116,-0.3105,-0.31,-0.3103,-0.3094,-0.3111,-0.3079,-0.3072,-0.3044,-0.3077,-0.3029,-0.3026,-0.3043,-0.3042,-0.3041,-0.304,0,0,-0.2816,-0.2918,-0.2921,-0.2955,-0.3027,-0.3052,-0.3102,-0.3143,-0.316,-0.317,-0.318,-0.3194,-0.3173,-0.317,-0.3155,-0.3152,-0.3146,-0.3123,-0.312,-0.3081,-0.3096,-0.3003,-0.299,-0.3143,-0.3143,-0.3143,-0.3051,0,-0.2827,-0.2904,-0.2956,-0.3018,-0.3057,-0.3105,-0.3148,-0.3186,-0.3201,-0.3214,-0.321,-0.3211,-0.3204,-0.3194,-0.3194,-0.3159,-0.3143,-0.3169,-0.307,-0.3067,-0.2981,-0.2986,-0.2862,-0.2763,-0.3048,-0.3047,-0.3047,0,-0.2833,-0.2887,-0.2952,-0.3042,-0.3063,-0.31,-0.3157,-0.3199,-0.3235,-0.3246,-0.3253,-0.3243,-0.3245,-0.3225,-0.3186,-0.3201,-0.3154,-0.3123,-0.3118,-0.3009,-0.2969,-0.2779,-0.2747,-0.2733,-0.3042,-0.3042,-0.3042,0,-0.2771,-0.2877,-0.2924,-0.2958,-0.3064,-0.309,-0.3134,-0.319,-0.322,-0.325,-0.3259,-0.3263,-0.3248,-0.3214,-0.3159,-0.3171,-0.3094,-0.3098,-0.2966,-0.2958,-0.2819,-0.2798,-0.276,-0.3061,-0.3061,-0.3061,-0.3061,0,-0.2758,-0.2788,-0.2895,-0.2919,-0.2963,-0.3049,-0.3085,-0.3135,-0.3193,-0.3211,-0.3254,-0.3251,-0.3247,-0.3206,-0.3155,-0.304,-0.3086,-0.2963,-0.2931,-0.2835,-0.2817,-0.2773,-0.2803,-0.3058,-0.3058,-0.3059,-0.306,0,-0.2665,-0.2749,-0.2798,-0.2903,-0.2933,-0.2951,-0.305,-0.3077,-0.3149,-0.3169,-0.3179,-0.3231,-0.3176,-0.3145,-0.3075,-0.3016,-0.2871,-0.2873,-0.2745,-0.27,-0.2563,-0.2602,-0.2523,-0.2451,-0.271,-0.2708,-0.2705,0,-0.2621,-0.2637,-0.2743,-0.2768,-0.2808,-0.2862,-0.2902,-0.3019,-0.3056,-0.3139,-0.3137,-0.3127,-0.3075,-0.2948,-0.285,-0.2724,-0.274,-0.2547,-0.2554,-0.2529,-0.255,-0.2592,-0.2541,-0.2388,-0.2383,-0.2379,-0.2376,0,-0.2506,-0.2542,-0.2579,-0.264,-0.2687,-0.2738,-0.2807,-0.284,-0.2963,-0.2989,-0.2986,-0.2952,-0.2862,-0.2698,-0.2576,-0.2481,-0.2489,-0.2461,-0.2473,-0.2322,-0.2326,-0.2249,-0.247,-0.2341,-0.2345,-0.2347,-0.2349,-0.235,-0.2385,-0.2383,-0.2439,-0.2478,-0.2536,-0.2569,-0.2505,-0.26,-0.2621,-0.254,-0.2748,-0.2593,-0.2571,-0.2376,-0.23,-0.2145,-0.2224,-0.2072,-0.2126,-0.2174,-0.2095,-0.2227,-0.2047,-0.2049,-0.205,-0.2051,-0.2053,0,-0.2218,-0.2242,-0.2276,-0.2319,-0.2292,-0.2376,-0.2389,-0.224,-0.2145,-0.2141,-0.2099,-0.2143,-0.2061,-0.2034,-0.197,-0.186,-0.1826,-0.1806,-0.1851,-0.1816,-0.1943,-0.1919,-0.1656,-0.1656,-0.1656,-0.1656,-0.1656,-0.1656,-0.2133,-0.2104,-0.2133,-0.2044,-0.2046,-0.1853,-0.177,-0.1607,-0.1485,-0.1294,-0.1268,-0.1281,-0.1589,-0.1923,-0.1865,-0.1756,-0.173,-0.1653,-0.1705,-0.1826,-0.1856,-0.1885,-0.1869,-0.1601,-0.1601,-0.15,-0.1499,-0.1499]},{"header":{"parameterUnit":"m.s-1","parameterCategory":2,"la1":30.2991,"la2":30.254,"lo1":-89.0895,"lo2":-89.0444,"dy":0.0017,"dx":0.0017,"nx":28,"ny":28,"refTime":"2024-05-25T03:00:00:Z","depth":"0","parameterNumber":3,"parameterNumberName":"V-component_of_CURRENTS"},"data":[0,0,0,0,0,0,0,0,0,0,0,0,0,0,0,0,0,0,0,0,0,0,0,0,0,0,0,0,0,0,0,0,0,0,0,0,0,0,0,0,0,0,0,0,0,0,0,0,0,0,0,0,0,0,0,0,0,0,-0.0169,-0.0168,0,-0.0062,-0.0061,-0.0059,0.0022,0.0022,0.0023,0.0023,0.0158,0.0161,0.0164,0,0,0,0,0,0,0,0,0,0,0,0,0,-0.0244,-0.0244,-0.0169,-0.0168,-0.0167,-0.0062,-0.0061,-0.0059,0.0022,0.0022,0.0023,0.0024,0.0157,0.0161,0.0165,0,0,0,0,0,0,0,0,0,0,0,0,0,-0.018,-0.0243,-0.017,-0.0116,-0.011,-0.0063,-0.0061,-0.0059,0.0022,0.0022,0.0023,0.0024,0.0156,0.016,0.0165,0.0177,0,0,0.0179,0.0181,0,0,0,0,0,0,0,0,-0.0184,-0.0177,-0.0125,-0.0119,-0.0113,-0.0034,-0.0038,0.0021,0.0021,-0.0026,0.0023,0.0024,0.0094,0.0104,0.0125,0.0183,0.0189,0.0179,0.0182,0.0184,0.0186,0,0,0,0,0,0,0,-0.0189,-0.0181,-0.0125,-0.0124,-0.0116,-0.0076,-0.0067,-0.0026,0.003,-0.0022,-0.0016,-0.0008,0.0098,0.012,0.0129,0.0191,0.0179,0.0183,0.0186,0.0188,0.0284,0.0284,0,0,0,0,0,0,-0.021,-0.0186,-0.0128,-0.0122,-0.0149,-0.0076,-0.0065,-0.0059,0.0029,0.0043,-0.0009,-0.0005,0.0112,0.0123,0.0134,0.0153,0.0184,0.0189,0.0191,0.0284,0.0284,0.0284,0,0,0,0,0,0,-0.0212,-0.0206,-0.0133,-0.0153,-0.0141,-0.0076,-0.0069,-0.0057,-0.0035,0.0039,0.0053,-0.0,0.0113,0.0127,0.0168,0.0159,0.0191,0.0195,0.0284,0.0284,0.0284,0.0191,0,0,0,0,0,0,-0.0215,-0.0207,-0.0214,-0.0154,-0.0141,-0.0117,-0.007,-0.0056,-0.0032,-0.0026,0.0051,0.0065,0.0115,0.016,0.0172,0.0166,0.0198,0.0285,0.0284,0.0284,0.0194,0.0188,0.0182,0,0,0,0,0,-0.0218,-0.0235,-0.0215,-0.0209,-0.0151,-0.0118,-0.0108,-0.0057,-0.0033,-0.0032,0.0024,0.0062,0.0167,0.0164,0.0178,0.0172,0.0285,0.0284,0.0284,0.0197,0.0189,0.0182,0,0,0,0,0,0,-0.0273,-0.0227,-0.0204,-0.0206,-0.0171,-0.0106,-0.0103,-0.0067,-0.0021,-0.0015,0.0059,0.0076,0.0107,0.0152,0.0147,0.02,0.0232,0.0234,0.0161,0.0154,0.0148,0.0135,0.0202,0,0,0,0,0,-0.029,-0.0289,-0.0236,-0.024,-0.0226,-0.0166,-0.0148,-0.0114,-0.0065,-0.0043,0.0011,0.0069,0.0116,0.0144,0.0189,0.0216,0.0274,0.0223,0.0217,0.0211,0.0211,0.029,0.029,0.0282,0.0282,0.0282,0,0,-0.0313,-0.0288,-0.0288,-0.0252,-0.0219,-0.0211,-0.0153,-0.0134,-0.0122,-0.0037,-0.001,0.0044,0.0117,0.0148,0.0167,0.0186,0.0242,0.0211,0.0205,0.0208,0.0289,0.029,0.0291,0.0282,0.0282,0.0282,0,0,-0.0367,-0.0337,-0.0358,-0.0331,-0.0293,-0.0253,-0.0253,-0.0194,-0.0163,-0.0131,-0.0066,-0.0015,0.005,0.0107,0.0143,0.013,0.0202,0.0141,0.0105,0.018,0.0182,0.0183,0.0249,0.0258,0.0143,0.0142,0.0142,0,-0.0401,-0.0412,-0.036,-0.0369,-0.0353,-0.0279,-0.0292,-0.0251,-0.0185,-0.0158,-0.0138,-0.0021,0.0034,0.0093,0.0088,0.0116,0.0168,0.0124,0.0171,0.0175,0.0178,0.0245,0.0256,0.0138,0.0138,0.0139,0.0139,0,-0.0463,-0.047,-0.048,-0.0463,-0.0439,-0.0439,-0.0374,-0.0347,-0.03,-0.0248,-0.0186,-0.0102,-0.0029,-0.0006,0.0037,0.0089,0.0119,0.0148,0.0187,0.0173,0.0245,0.0258,0.0131,0.0133,0.0134,0.0136,0,0,-0.0544,-0.053,-0.0535,-0.0539,-0.0488,-0.0475,-0.0452,-0.0403,-0.0378,-0.0309,-0.0267,-0.0184,-0.0125,-0.008,-0.0011,0.0056,0.012,0.0104,0.011,0.0161,0.0284,0.035,0.0371,0.0158,0.0159,0.0161,0.032,0,-0.0612,-0.0661,-0.0621,-0.0649,-0.0663,-0.058,-0.0562,-0.0501,-0.0433,-0.0374,-0.0269,-0.0207,-0.0155,-0.0116,-0.0045,0.0086,0.0151,0.0074,0.0296,0.0302,0.0358,0.0387,0.0451,0.0603,0.0333,0.0335,0.0337,0,-0.0686,-0.0708,-0.0756,-0.0736,-0.0732,-0.0727,-0.0666,-0.0638,-0.0528,-0.0472,-0.0381,-0.0288,-0.0175,-0.0133,0.0075,0.0024,0.0137,0.0237,0.0246,0.0352,0.0394,0.0576,0.0637,0.0817,0.0357,0.0356,0.0354,0,-0.0773,-0.0795,-0.0838,-0.0832,-0.0799,-0.0794,-0.0767,-0.0673,-0.0639,-0.0526,-0.0481,-0.0331,-0.0243,-0.0088,0.0117,0.01,0.0354,0.0361,0.0526,0.0532,0.0654,0.0668,0.0912,0.0499,0.0499,0.0499,0.0498,0,-0.0858,-0.0889,-0.0885,-0.0907,-0.0944,-0.0879,-0.0879,-0.0824,-0.0729,-0.0672,-0.0542,-0.045,-0.0225,-0.0048,0.0114,0.0373,0.0358,0.0534,0.0586,0.0622,0.0631,0.0847,0.0908,0.0505,0.0503,0.0502,0.0501,0,-0.0943,-0.0943,-0.0991,-0.0986,-0.099,-0.1013,-0.0971,-0.0956,-0.0858,-0.0776,-0.0739,-0.0521,-0.0271,-0.0044,0.0245,0.0385,0.0744,0.0699,0.0723,0.0775,0.1081,0.1133,0.1418,0.1543,0.0908,0.0911,0.0913,0,-0.0991,-0.1026,-0.1066,-0.1105,-0.1109,-0.1128,-0.1133,-0.1042,-0.1,-0.08,-0.0756,-0.05,-0.0271,0.0164,0.0465,0.078,0.089,0.0991,0.097,0.1129,0.1226,0.1244,0.1329,0.1094,0.1098,0.1101,0.1103,0,-0.107,-0.1082,-0.1123,-0.1214,-0.1246,-0.1266,-0.1249,-0.1226,-0.1077,-0.0904,-0.0662,-0.0457,-0.0062,0.037,0.0754,0.0925,0.1144,0.106,0.1238,0.1409,0.1437,0.1571,0.0944,0.113,0.1127,0.1125,0.1124,0.1123,-0.1117,-0.1172,-0.123,-0.1302,-0.1349,-0.1358,-0.1286,-0.1191,-0.1012,-0.0648,-0.0533,-0.0043,0.0296,0.088,0.1073,0.1477,0.1401,0.158,0.1634,0.1641,0.1759,0.118,0.1412,0.1411,0.141,0.1409,0.1409,0,-0.1163,-0.1219,-0.1308,-0.1359,-0.1372,-0.1378,-0.1307,-0.1125,-0.0801,-0.0463,-0.0084,0.0571,0.104,0.1375,0.1834,0.204,0.208,0.2122,0.2174,0.2238,0.1757,0.1762,0.2065,0.2065,0.2065,0.2065,0.2064,0.2064,-0.1186,-0.1275,-0.1317,-0.1341,-0.1337,-0.1211,-0.1104,-0.0808,-0.0506,0.0167,0.0718,0.1028,0.144,0.2084,0.2514,0.2538,0.273,0.2694,0.28,0.2466,0.2419,0.2374,0.2396,0.2827,0.2828,0.3276,0.328,0.3284]}],[{"header":{"parameterUnit":"m.s-1","parameterCategory":2,"la1":30.2991,"la2":30.254,"lo1":-89.0895,"lo2":-89.0444,"dy":0.0017,"dx":0.0017,"nx":28,"ny":28,"refTime":"2024-05-25T03:00:00:Z","depth":"2","parameterNumber":2,"parameterNumberName":"U-component_of_CURRENTS"},"data":[0,0,0,0,0,0,0,0,0,0,0,0,0,0,0,0,0,0,0,0,0,0,0,0,0,0,0,0,0,0,0,0,0,0,0,0,0,0,0,0,0,0,0,0,0,0,0,0,0,0,0,0,0,0,0,0,0,0,-0.267,-0.2671,0,-0.271,-0.2711,-0.2711,-0.2696,-0.2695,-0.2694,-0.2694,-0.2672,-0.2672,-0.2672,0,0,0,0,0,0,0,0,0,0,0,0,0,-0.2575,-0.2577,-0.267,-0.2671,-0.2672,-0.271,-0.2711,-0.2711,-0.2696,-0.2695,-0.2694,-0.2693,-0.2672,-0.2672,-0.2672,0,0,0,0,0,0,0,0,0,0,0,0,0,-0.2613,-0.2577,-0.267,-0.2671,-0.2672,-0.271,-0.2711,-0.2711,-0.2696,-0.2695,-0.2694,-0.2693,-0.2672,-0.2672,-0.2672,-0.2692,0,0,-0.2672,-0.2672,0,0,0,0,0,0,0,0,-0.2611,-0.2616,-0.267,-0.2671,-0.2672,-0.2699,-0.2669,-0.2702,-0.2696,-0.2684,-0.2694,-0.2693,-0.2678,-0.2677,-0.2684,-0.2691,-0.269,-0.2672,-0.2672,-0.2672,-0.2672,0,0,0,0,0,0,0,-0.2608,-0.2615,-0.2683,-0.2671,-0.2672,-0.2668,-0.2672,-0.2675,-0.2683,-0.2685,-0.2685,-0.2694,-0.2677,-0.2684,-0.2683,-0.269,-0.2672,-0.2672,-0.2672,-0.2672,-0.2716,-0.2717,0,0,0,0,0,0,-0.2611,-0.2612,-0.2682,-0.2685,-0.2642,-0.267,-0.2675,-0.2689,-0.2684,-0.2683,-0.2695,-0.2693,-0.2684,-0.2683,-0.2682,-0.2713,-0.2672,-0.2672,-0.2672,-0.2715,-0.2716,-0.2717,0,0,0,0,0,0,-0.2609,-0.2617,-0.2681,-0.2651,-0.2659,-0.2673,-0.269,-0.2691,-0.2697,-0.2693,-0.269,-0.27,-0.2684,-0.2682,-0.2694,-0.2712,-0.2672,-0.2672,-0.2713,-0.2715,-0.2717,-0.277,0,0,0,0,0,0,-0.2606,-0.2616,-0.2626,-0.2652,-0.2661,-0.2709,-0.2691,-0.2692,-0.2706,-0.2704,-0.2697,-0.2694,-0.2683,-0.2694,-0.2694,-0.2711,-0.2672,-0.2712,-0.2714,-0.2716,-0.2767,-0.2774,-0.2779,0,0,0,0,0,-0.2603,-0.2622,-0.2626,-0.2634,-0.2675,-0.271,-0.2715,-0.2719,-0.2707,-0.2719,-0.2714,-0.2694,-0.2707,-0.2695,-0.2695,-0.2712,-0.2711,-0.2713,-0.2716,-0.2764,-0.2772,-0.2779,0,0,0,0,0,0,-0.2583,-0.2624,-0.2628,-0.2658,-0.2685,-0.2709,-0.272,-0.2724,-0.2731,-0.2725,-0.2711,-0.2709,-0.2726,-0.2714,-0.2702,-0.2732,-0.2705,-0.2707,-0.2742,-0.2749,-0.2755,-0.2756,-0.2672,0,0,0,0,0,-0.2586,-0.2609,-0.2646,-0.2667,-0.2683,-0.2702,-0.2715,-0.2724,-0.2736,-0.2738,-0.2733,-0.2731,-0.2738,-0.2739,-0.2742,-0.276,-0.2735,-0.2771,-0.2777,-0.2782,-0.2783,-0.2774,-0.2779,-0.2726,-0.2726,-0.2725,0,0,-0.2581,-0.2608,-0.2619,-0.2664,-0.2682,-0.2718,-0.2707,-0.2735,-0.2761,-0.2735,-0.2758,-0.2753,-0.2748,-0.2769,-0.2775,-0.276,-0.2782,-0.2785,-0.279,-0.2788,-0.2777,-0.2782,-0.2787,-0.2727,-0.2727,-0.2727,0,0,-0.259,-0.2612,-0.2636,-0.2668,-0.2709,-0.2728,-0.2738,-0.277,-0.2778,-0.2807,-0.2793,-0.28,-0.281,-0.2813,-0.2815,-0.2857,-0.2816,-0.2856,-0.2886,-0.2878,-0.2882,-0.2885,-0.2848,-0.2847,-0.2857,-0.2857,-0.2857,0,-0.2582,-0.2624,-0.2648,-0.2688,-0.2715,-0.2735,-0.2771,-0.2793,-0.2822,-0.283,-0.2819,-0.2837,-0.2833,-0.2857,-0.2873,-0.287,-0.2847,-0.2858,-0.2885,-0.2887,-0.289,-0.2851,-0.285,-0.286,-0.286,-0.286,-0.2859,0,-0.2616,-0.2653,-0.2672,-0.2729,-0.2761,-0.2796,-0.2837,-0.2861,-0.2869,-0.2884,-0.2906,-0.2904,-0.2909,-0.2915,-0.2908,-0.2929,-0.2899,-0.2894,-0.2864,-0.2898,-0.2855,-0.2853,-0.2864,-0.2863,-0.2862,-0.2862,0,0,-0.2578,-0.2676,-0.268,-0.2713,-0.2787,-0.2812,-0.2866,-0.291,-0.2931,-0.2952,-0.2967,-0.2992,-0.2977,-0.2979,-0.2969,-0.2967,-0.2963,-0.2941,-0.2939,-0.29,-0.2921,-0.2826,-0.2813,-0.2961,-0.2961,-0.2962,-0.2879,0,-0.2591,-0.2666,-0.2716,-0.2778,-0.2817,-0.2866,-0.2912,-0.2954,-0.2976,-0.2995,-0.2999,-0.301,-0.3006,-0.3003,-0.3005,-0.2976,-0.2962,-0.2984,-0.2897,-0.2894,-0.2802,-0.281,-0.2608,-0.2511,-0.2876,-0.2876,-0.2876,0,-0.2599,-0.2651,-0.2717,-0.2803,-0.2823,-0.2862,-0.2922,-0.2968,-0.3012,-0.3027,-0.3043,-0.304,-0.3049,-0.3032,-0.3003,-0.3016,-0.2974,-0.2946,-0.2942,-0.2833,-0.2795,-0.2539,-0.2493,-0.2871,-0.2872,-0.2872,-0.2872,0,-0.2543,-0.2643,-0.2691,-0.2724,-0.2828,-0.2856,-0.2903,-0.2964,-0.2998,-0.3035,-0.3049,-0.306,-0.3055,-0.3026,-0.2979,-0.299,-0.2924,-0.2928,-0.2798,-0.279,-0.259,-0.2563,-0.2896,-0.2896,-0.2896,-0.2896,-0.2897,0,-0.2532,-0.2563,-0.2666,-0.2691,-0.2736,-0.2821,-0.2863,-0.2914,-0.2978,-0.2999,-0.3049,-0.3047,-0.3055,-0.3022,-0.2976,-0.2869,-0.2918,-0.2795,-0.2764,-0.2601,-0.2578,-0.2873,-0.2872,-0.2893,-0.2894,-0.2895,-0.2895,0,-0.2451,-0.2531,-0.2579,-0.2682,-0.2711,-0.2733,-0.2834,-0.2866,-0.2942,-0.2968,-0.298,-0.3033,-0.2984,-0.2964,-0.2902,-0.2848,-0.2766,-0.2713,-0.2508,-0.2455,-0.2636,-0.2639,-0.256,-0.2556,-0.2553,-0.255,-0.2548,0,-0.2416,-0.2435,-0.2535,-0.2558,-0.2599,-0.2658,-0.2702,-0.2817,-0.2852,-0.2937,-0.2933,-0.2931,-0.2874,-0.276,-0.2668,-0.2551,-0.2647,-0.231,-0.2303,-0.2625,-0.2604,-0.2611,-0.2618,-0.205,-0.2044,-0.2039,-0.2035,0,-0.2322,-0.2355,-0.2394,-0.2444,-0.2491,-0.254,-0.2608,-0.2635,-0.2755,-0.2784,-0.2776,-0.2739,-0.2656,-0.2447,-0.2334,-0.2244,-0.2318,-0.2202,-0.2576,-0.2179,-0.214,-0.2121,-0.2145,-0.1989,-0.1994,-0.1997,-0.2,-0.2001,-0.2222,-0.2221,-0.2268,-0.2295,-0.2352,-0.2367,-0.2333,-0.2426,-0.2444,-0.2432,-0.2527,-0.2399,-0.2366,-0.2072,-0.1953,-0.1864,-0.202,-0.1925,-0.1942,-0.1964,-0.1932,-0.1891,-0.1685,-0.1688,-0.169,-0.1692,-0.1694,0,-0.2077,-0.2091,-0.2114,-0.2128,-0.2099,-0.2191,-0.222,-0.2152,-0.2095,-0.2153,-0.2109,-0.1868,-0.1727,-0.1697,-0.1495,-0.1458,-0.1457,-0.1388,-0.1394,-0.1438,-0.1478,-0.1424,-0.1041,-0.1039,-0.1038,-0.1036,0,0,-0.2002,-0.1961,-0.1969,-0.1853,-0.1855,-0.1743,-0.1706,-0.1662,-0.1648,-0.1567,-0.1518,-0.1619,-0.1638,-0.1348,-0.1275,-0.1128,-0.127,-0.1063,-0.1581,-0.163,-0.1669,-0.1774,-0.1739,0,0,0,0,0]},{"header":{"parameterUnit":"m.s-1","parameterCategory":2,"la1":30.2991,"la2":30.254,"lo1":-89.0895,"lo2":-89.0444,"dy":0.0017,"dx":0.0017,"nx":28,"ny":28,"refTime":"2024-05-25T03:00:00:Z","depth":"2","parameterNumber":3,"parameterNumberName":"V-component_of_CURRENTS"},"data":[0,0,0,0,0,0,0,0,0,0,0,0,0,0,0,0,0,0,0,0,0,0,0,0,0,0,0,0,0,0,0,0,0,0,0,0,0,0,0,0,0,0,0,0,0,0,0,0,0,0,0,0,0,0,0,0,0,0,-0.0245,-0.0245,0,-0.0146,-0.0145,-0.0143,-0.0074,-0.0074,-0.0073,-0.0073,0.0056,0.0059,0.0062,0,0,0,0,0,0,0,0,0,0,0,0,0,-0.0317,-0.0316,-0.0246,-0.0244,-0.0243,-0.0146,-0.0145,-0.0143,-0.0074,-0.0074,-0.0073,-0.0073,0.0055,0.0059,0.0063,0,0,0,0,0,0,0,0,0,0,0,0,0,-0.0257,-0.0316,-0.0246,-0.0199,-0.0194,-0.0146,-0.0145,-0.0143,-0.0074,-0.0074,-0.0073,-0.0073,0.0054,0.0059,0.0063,0.0081,0,0,0.0077,0.0079,0,0,0,0,0,0,0,0,-0.026,-0.0254,-0.0207,-0.0202,-0.0196,-0.0124,-0.0122,-0.0067,-0.0074,-0.0117,-0.0073,-0.0072,-0.0003,0.0007,0.0027,0.0087,0.0093,0.0078,0.0081,0.0083,0.0084,0,0,0,0,0,0,0,-0.0265,-0.0258,-0.0204,-0.0206,-0.0199,-0.0163,-0.0154,-0.0111,-0.0062,-0.0114,-0.0109,-0.0101,0.0001,0.0022,0.003,0.0095,0.0078,0.0082,0.0085,0.0087,0.0196,0.0196,0,0,0,0,0,0,-0.0285,-0.0262,-0.0207,-0.0201,-0.023,-0.0162,-0.0152,-0.0146,-0.0063,-0.0051,-0.0102,-0.0098,0.0014,0.0025,0.0035,0.0064,0.0083,0.0087,0.009,0.0196,0.0196,0.0197,0,0,0,0,0,0,-0.0287,-0.0281,-0.0211,-0.0231,-0.022,-0.0162,-0.0155,-0.0144,-0.0123,-0.0055,-0.0041,-0.0093,0.0014,0.0028,0.0072,0.007,0.0089,0.0093,0.0196,0.0196,0.0196,0.0121,0,0,0,0,0,0,-0.0289,-0.0282,-0.0287,-0.0232,-0.0219,-0.0193,-0.0155,-0.0143,-0.012,-0.0115,-0.0043,-0.003,0.0016,0.0064,0.0076,0.0077,0.0097,0.0196,0.0196,0.0196,0.0124,0.0119,0.0115,0,0,0,0,0,-0.0292,-0.0304,-0.0288,-0.0282,-0.0227,-0.0194,-0.0184,-0.0139,-0.0121,-0.0117,-0.0065,-0.0032,0.0075,0.0068,0.0082,0.0084,0.0196,0.0196,0.0196,0.0126,0.012,0.0115,0,0,0,0,0,0,-0.0338,-0.0296,-0.0278,-0.0277,-0.0242,-0.0183,-0.0178,-0.0147,-0.0102,-0.0097,-0.0031,-0.0015,0.0021,0.0064,0.0055,0.0117,0.0141,0.0144,0.0082,0.0077,0.0073,0.0059,0.0101,0,0,0,0,0,-0.0352,-0.035,-0.0302,-0.0302,-0.0289,-0.0235,-0.0217,-0.0187,-0.014,-0.012,-0.0069,-0.0013,0.0033,0.0063,0.0107,0.0142,0.0188,0.0153,0.0149,0.0144,0.0143,0.0213,0.0214,0.0197,0.0197,0.0197,0,0,-0.0371,-0.0349,-0.0347,-0.0312,-0.0282,-0.0269,-0.0222,-0.0202,-0.0186,-0.0113,-0.0081,-0.0031,0.0037,0.0075,0.0096,0.0111,0.0172,0.0145,0.0141,0.0142,0.0213,0.0215,0.0216,0.0198,0.0198,0.0198,0,0,-0.0413,-0.0388,-0.0401,-0.0375,-0.0339,-0.0302,-0.0301,-0.0245,-0.0216,-0.018,-0.0124,-0.0074,-0.0006,0.0049,0.0084,0.0084,0.0141,0.0095,0.0069,0.0136,0.0138,0.014,0.0191,0.0198,0.0099,0.0099,0.0099,0,-0.0439,-0.0445,-0.04,-0.0402,-0.0386,-0.0322,-0.0327,-0.0288,-0.0225,-0.02,-0.0183,-0.007,-0.0016,0.0046,0.0046,0.0074,0.0115,0.008,0.0129,0.0132,0.0136,0.0188,0.0197,0.0096,0.0096,0.0096,0.0097,0,-0.0484,-0.0487,-0.0493,-0.0472,-0.0447,-0.0442,-0.0382,-0.0355,-0.0314,-0.0267,-0.0206,-0.0126,-0.0057,-0.0032,0.0007,0.0061,0.0081,0.0108,0.0138,0.0133,0.0188,0.0199,0.0091,0.0092,0.0093,0.0094,0,0,-0.055,-0.0531,-0.0535,-0.0536,-0.0484,-0.047,-0.0442,-0.0394,-0.0372,-0.0304,-0.0265,-0.018,-0.0131,-0.0087,-0.0024,0.0038,0.0094,0.0076,0.0081,0.0118,0.0232,0.0274,0.0291,0.0128,0.013,0.0131,0.0257,0,-0.0602,-0.0635,-0.0598,-0.0614,-0.0621,-0.0549,-0.0526,-0.047,-0.0409,-0.0354,-0.0258,-0.02,-0.0152,-0.0117,-0.005,0.0062,0.0121,0.0057,0.024,0.0245,0.0276,0.0305,0.0266,0.0378,0.0268,0.027,0.0271,0,-0.0659,-0.0673,-0.0707,-0.0685,-0.0679,-0.0671,-0.0615,-0.0586,-0.0486,-0.0437,-0.0354,-0.0271,-0.0166,-0.0129,0.0054,0.001,0.0108,0.0193,0.0201,0.0275,0.0308,0.0369,0.0403,0.029,0.0289,0.0287,0.0286,0,-0.0735,-0.0744,-0.0777,-0.0769,-0.0733,-0.0727,-0.0702,-0.0618,-0.0588,-0.0485,-0.0447,-0.031,-0.0232,-0.0095,0.0083,0.007,0.0286,0.0296,0.0425,0.0428,0.0451,0.0454,0.0418,0.0418,0.0418,0.0418,0.0417,0,-0.0803,-0.0827,-0.0819,-0.0835,-0.0865,-0.0804,-0.0805,-0.0755,-0.0671,-0.0624,-0.0502,-0.0423,-0.0219,-0.0065,0.0077,0.0292,0.0287,0.043,0.0472,0.0423,0.0423,0.039,0.0385,0.0422,0.0421,0.042,0.042,0,-0.0879,-0.0874,-0.0911,-0.0901,-0.0904,-0.0925,-0.089,-0.0878,-0.0792,-0.0724,-0.0692,-0.0494,-0.0283,-0.008,0.0172,0.0294,0.0486,0.0559,0.0483,0.0515,0.058,0.0569,0.0714,0.0717,0.0719,0.0721,0.0722,0,-0.0921,-0.0948,-0.0978,-0.1013,-0.1015,-0.1033,-0.1039,-0.0958,-0.0923,-0.0755,-0.0717,-0.0499,-0.0317,0.0057,0.0317,0.0583,0.0565,0.0684,0.066,0.0587,0.0614,0.06,0.0587,0.0656,0.0657,0.0657,0.0658,0,-0.0994,-0.1003,-0.1037,-0.1115,-0.1145,-0.1166,-0.1154,-0.1137,-0.101,-0.0918,-0.0731,-0.0568,-0.0189,0.0132,0.0469,0.0606,0.0638,0.071,0.0678,0.0584,0.0543,0.0565,0.0553,0.0665,0.0664,0.0664,0.0663,0.0663,-0.1044,-0.1093,-0.1143,-0.121,-0.125,-0.1269,-0.1271,-0.1212,-0.1131,-0.0948,-0.0762,-0.0496,-0.0166,0.0323,0.0568,0.0764,0.0758,0.0788,0.0782,0.0775,0.0743,0.0709,0.0855,0.0855,0.0856,0.0856,0.0856,0,-0.1106,-0.1156,-0.1232,-0.1297,-0.1345,-0.1344,-0.1319,-0.1271,-0.1161,-0.096,-0.0745,-0.0368,-0.0002,0.0303,0.0648,0.0867,0.0826,0.0865,0.0777,0.0769,0.0763,0.0726,0.0836,0.0836,0.0837,0.0837,0,0,-0.1139,-0.1225,-0.1262,-0.1356,-0.1397,-0.1415,-0.1394,-0.129,-0.1136,-0.0913,-0.0704,-0.0404,0.0004,0.0246,0.0523,0.069,0.0659,0.0683,0.0677,0.0532,0.0523,0.0697,0.0631,0,0,0,0,0]}],[{"header":{"parameterUnit":"m.s-1","parameterCategory":2,"la1":30.2991,"la2":30.254,"lo1":-89.0895,"lo2":-89.0444,"dy":0.0017,"dx":0.0017,"nx":28,"ny":28,"refTime":"2024-05-25T03:00:00:Z","depth":"4","parameterNumber":2,"parameterNumberName":"U-component_of_CURRENTS"},"data":[0,0,0,0,0,0,0,0,0,0,0,0,0,0,0,0,0,0,0,0,0,0,0,0,0,0,0,0,0,0,0,0,0,0,0,0,0,0,0,0,0,0,0,0,0,0,0,0,0,0,0,0,0,0,0,0,0,0,-0.19,-0.1901,0,-0.1984,-0.1984,-0.1985,-0.2035,-0.2035,-0.2036,-0.2036,-0.2107,-0.2108,-0.211,0,0,0,0,0,0,0,0,0,0,0,0,0,-0.1779,-0.1781,-0.19,-0.1901,-0.1902,-0.1983,-0.1984,-0.1985,-0.2035,-0.2035,-0.2036,-0.2036,-0.2106,-0.2108,-0.211,0,0,0,0,0,0,0,0,0,0,0,0,0,-0.1842,-0.1782,-0.19,-0.1939,-0.1943,-0.1983,-0.1984,-0.1986,-0.2035,-0.2035,-0.2036,-0.2037,-0.2106,-0.2108,-0.211,-0.2111,0,0,-0.2117,-0.2118,0,0,0,0,0,0,0,0,-0.1838,-0.1846,-0.1932,-0.1936,-0.1941,-0.2001,-0.1968,-0.2028,-0.2034,-0.1998,-0.2036,-0.2037,-0.2071,-0.2077,-0.2088,-0.2115,-0.2118,-0.2117,-0.2119,-0.212,-0.212,0,0,0,0,0,0,0,-0.1834,-0.1843,-0.1931,-0.1933,-0.1939,-0.1951,-0.196,-0.1979,-0.2028,-0.2001,-0.2005,-0.2018,-0.2074,-0.2086,-0.209,-0.2119,-0.2117,-0.2119,-0.2121,-0.2121,-0.2237,-0.2239,0,0,0,0,0,0,-0.1828,-0.1839,-0.1928,-0.1934,-0.1893,-0.1952,-0.1963,-0.198,-0.2028,-0.2037,-0.2017,-0.202,-0.2081,-0.2087,-0.2093,-0.2179,-0.212,-0.2122,-0.2123,-0.2235,-0.2237,-0.2239,0,0,0,0,0,0,-0.1825,-0.1835,-0.1925,-0.1889,-0.1902,-0.1954,-0.1972,-0.1981,-0.2026,-0.2041,-0.2049,-0.2057,-0.2082,-0.2089,-0.2144,-0.2179,-0.2123,-0.2125,-0.2233,-0.2236,-0.2238,-0.2299,0,0,0,0,0,0,-0.1821,-0.1834,-0.186,-0.1889,-0.1904,-0.1973,-0.1972,-0.1982,-0.2032,-0.2037,-0.2077,-0.2083,-0.2083,-0.2141,-0.2147,-0.2181,-0.2126,-0.2231,-0.2234,-0.2237,-0.2295,-0.2303,-0.2311,0,0,0,0,0,-0.1817,-0.1845,-0.186,-0.1872,-0.1933,-0.1974,-0.1984,-0.202,-0.2033,-0.2061,-0.2092,-0.2083,-0.2165,-0.2145,-0.215,-0.2186,-0.2229,-0.2233,-0.2237,-0.2291,-0.2302,-0.2311,0,0,0,0,0,0,-0.1809,-0.1854,-0.1871,-0.1914,-0.1953,-0.1984,-0.2019,-0.2039,-0.2085,-0.21,-0.2108,-0.2116,-0.2176,-0.2175,-0.2151,-0.2229,-0.2195,-0.22,-0.2234,-0.2244,-0.2252,-0.2245,-0.2128,0,0,0,0,0,-0.1818,-0.1853,-0.1893,-0.1931,-0.1954,-0.1992,-0.202,-0.2046,-0.2082,-0.2105,-0.2133,-0.2163,-0.2191,-0.2214,-0.2237,-0.2281,-0.2255,-0.2308,-0.2316,-0.2323,-0.2322,-0.2319,-0.2326,-0.2252,-0.2252,-0.2252,0,0,-0.1826,-0.1856,-0.1878,-0.1933,-0.1966,-0.201,-0.2011,-0.2066,-0.2108,-0.2104,-0.2179,-0.2196,-0.221,-0.2262,-0.2288,-0.2269,-0.2329,-0.2328,-0.2333,-0.2328,-0.2324,-0.2331,-0.2337,-0.2255,-0.2254,-0.2254,0,0,-0.1848,-0.1888,-0.1922,-0.1961,-0.2021,-0.2045,-0.2068,-0.2121,-0.2156,-0.222,-0.2227,-0.2266,-0.2318,-0.233,-0.2341,-0.2407,-0.2372,-0.2421,-0.2456,-0.2455,-0.246,-0.2465,-0.2431,-0.2432,-0.2424,-0.2424,-0.2424,0,-0.1858,-0.1907,-0.194,-0.1985,-0.2023,-0.2065,-0.2111,-0.2152,-0.2219,-0.2245,-0.2256,-0.233,-0.2347,-0.239,-0.2418,-0.2424,-0.2406,-0.2418,-0.2463,-0.2468,-0.2471,-0.2435,-0.2436,-0.2427,-0.2427,-0.2427,-0.2426,0,-0.1896,-0.1951,-0.1978,-0.2047,-0.2091,-0.2142,-0.2196,-0.2248,-0.2292,-0.2322,-0.2389,-0.2413,-0.2448,-0.2467,-0.2467,-0.2507,-0.2479,-0.2473,-0.2434,-0.2482,-0.2441,-0.2441,-0.2432,-0.2431,-0.243,-0.2429,0,0,-0.187,-0.1983,-0.1995,-0.2039,-0.2131,-0.2164,-0.2243,-0.2308,-0.235,-0.2416,-0.2457,-0.2519,-0.2524,-0.2537,-0.2541,-0.2548,-0.256,-0.2529,-0.2527,-0.2486,-0.2535,-0.2369,-0.2352,-0.2564,-0.2565,-0.2565,-0.2491,0,-0.1891,-0.1978,-0.2033,-0.2121,-0.2168,-0.2236,-0.2299,-0.2365,-0.2417,-0.2467,-0.2498,-0.2544,-0.2553,-0.2572,-0.2584,-0.2568,-0.2563,-0.2579,-0.2503,-0.25,-0.2339,-0.2348,-0.2567,-0.249,-0.249,-0.249,-0.249,0,-0.1899,-0.196,-0.205,-0.2156,-0.2183,-0.2244,-0.2337,-0.2399,-0.2474,-0.2512,-0.2559,-0.2578,-0.2611,-0.2605,-0.26,-0.2611,-0.258,-0.256,-0.2557,-0.2378,-0.2332,-0.2437,-0.2488,-0.2488,-0.2488,-0.2488,-0.2488,0,-0.184,-0.1964,-0.2035,-0.2076,-0.2203,-0.2257,-0.2323,-0.2413,-0.246,-0.2536,-0.2565,-0.2606,-0.2625,-0.2611,-0.2584,-0.2597,-0.2547,-0.2554,-0.2369,-0.2357,-0.2502,-0.2498,-0.2535,-0.2535,-0.2535,-0.2536,-0.2536,0,-0.1819,-0.1878,-0.202,-0.2059,-0.2136,-0.2236,-0.2314,-0.2382,-0.2469,-0.2499,-0.258,-0.2584,-0.2632,-0.2611,-0.2579,-0.2454,-0.2541,-0.2361,-0.2325,-0.2528,-0.2528,-0.25,-0.2496,-0.2533,-0.2533,-0.2534,-0.2534,0,-0.1735,-0.1838,-0.1922,-0.2066,-0.2114,-0.2165,-0.2301,-0.2344,-0.2445,-0.2483,-0.2508,-0.2574,-0.2533,-0.2539,-0.2499,-0.2424,-0.2337,-0.2272,-0.2465,-0.2444,-0.2148,-0.215,-0.205,-0.2044,-0.2038,-0.2034,-0.203,0,-0.1697,-0.1737,-0.1898,-0.1944,-0.2016,-0.2114,-0.2174,-0.2309,-0.2345,-0.2441,-0.2431,-0.2448,-0.2461,-0.2253,-0.2293,-0.2192,-0.2174,-0.2123,-0.2157,-0.2122,-0.2098,-0.2109,-0.2117,-0.2021,-0.202,-0.2018,-0.2017,0,-0.161,-0.1684,-0.1752,-0.1843,-0.1924,-0.1992,-0.2086,-0.2093,-0.222,-0.2346,-0.2273,-0.2228,-0.2171,-0.2119,-0.2054,-0.1994,-0.2156,-0.2066,-0.2077,-0.2109,-0.2086,-0.207,-0.2085,-0.1998,-0.2001,-0.2002,-0.2004,0,-0.1539,-0.1559,-0.1651,-0.1708,-0.1804,-0.1816,-0.1894,-0.192,-0.1968,-0.209,-0.2054,-0.2063,-0.2134,-0.2011,-0.1951,-0.1876,-0.1854,-0.1808,-0.1833,-0.1854,-0.1826,-0.177,-0.1537,0,0,0,0,0,-0.1449,-0.1452,-0.1502,-0.155,-0.1633,-0.1672,-0.1803,-0.1883,-0.2015,-0.1909,-0.1973,-0.1903,-0.1807,-0.1821,-0.1696,-0.1861,-0.1864,-0.1712,-0.1827,-0.1892,-0.1914,-0.19,0,0,0,0,0,0,-0.1392,-0.1436,-0.1446,-0.1391,-0.1384,-0.1447,-0.1516,-0.1615,-0.157,-0.171,-0.1659,-0.1775,-0.1703,-0.1818,-0.1643,-0.1648,-0.1682,-0.1743,-0.1738,-0.188,-0.19,-0.1917,-0.191,0,0,0,0,0]},{"header":{"parameterUnit":"m.s-1","parameterCategory":2,"la1":30.2991,"la2":30.254,"lo1":-89.0895,"lo2":-89.0444,"dy":0.0017,"dx":0.0017,"nx":28,"ny":28,"refTime":"2024-05-25T03:00:00:Z","depth":"4","parameterNumber":3,"parameterNumberName":"V-component_of_CURRENTS"},"data":[0,0,0,0,0,0,0,0,0,0,0,0,0,0,0,0,0,0,0,0,0,0,0,0,0,0,0,0,0,0,0,0,0,0,0,0,0,0,0,0,0,0,0,0,0,0,0,0,0,0,0,0,0,0,0,0,0,0,-0.0196,-0.0196,0,-0.0127,-0.0127,-0.0126,-0.008,-0.008,-0.008,-0.008,0.0025,0.0028,0.0031,0,0,0,0,0,0,0,0,0,0,0,0,0,-0.0241,-0.0241,-0.0196,-0.0196,-0.0195,-0.0128,-0.0127,-0.0125,-0.008,-0.008,-0.008,-0.0079,0.0025,0.0028,0.0031,0,0,0,0,0,0,0,0,0,0,0,0,0,-0.02,-0.024,-0.0196,-0.0166,-0.0162,-0.0128,-0.0126,-0.0125,-0.008,-0.008,-0.008,-0.0079,0.0024,0.0027,0.0031,0.0052,0,0,0.0044,0.0045,0,0,0,0,0,0,0,0,-0.0203,-0.0198,-0.0171,-0.0168,-0.0164,-0.0114,-0.0104,-0.0065,-0.008,-0.0109,-0.008,-0.0079,-0.0019,-0.0012,0.0003,0.0057,0.0062,0.0044,0.0046,0.0048,0.0049,0,0,0,0,0,0,0,-0.0206,-0.0201,-0.0167,-0.017,-0.0166,-0.0139,-0.0133,-0.0096,-0.0064,-0.0107,-0.0104,-0.0099,-0.0017,-0.0001,0.0006,0.0063,0.0044,0.0047,0.005,0.0052,0.0157,0.0157,0,0,0,0,0,0,-0.0221,-0.0204,-0.0169,-0.0165,-0.0185,-0.0139,-0.0132,-0.0129,-0.0065,-0.0056,-0.0099,-0.0097,-0.0008,0.0001,0.001,0.0042,0.0048,0.0052,0.0054,0.0156,0.0157,0.0157,0,0,0,0,0,0,-0.0222,-0.0218,-0.0172,-0.0184,-0.0177,-0.0139,-0.0135,-0.0127,-0.0114,-0.006,-0.005,-0.0094,-0.0007,0.0004,0.0042,0.0046,0.0054,0.0057,0.0156,0.0157,0.0157,0.0104,0,0,0,0,0,0,-0.0223,-0.0219,-0.0225,-0.0186,-0.0177,-0.0158,-0.0135,-0.0126,-0.0112,-0.0109,-0.0052,-0.0042,-0.0006,0.0036,0.0046,0.0052,0.0061,0.0155,0.0156,0.0157,0.0105,0.0102,0.01,0,0,0,0,0,-0.0225,-0.0233,-0.0225,-0.0221,-0.0185,-0.0159,-0.0152,-0.0122,-0.0112,-0.0109,-0.0069,-0.0044,0.0048,0.0039,0.0051,0.0058,0.0155,0.0156,0.0157,0.0106,0.0103,0.01,0,0,0,0,0,0,-0.0255,-0.0228,-0.0219,-0.0219,-0.0195,-0.0152,-0.0149,-0.0128,-0.0094,-0.0091,-0.004,-0.0027,0.0006,0.0041,0.003,0.0092,0.0106,0.011,0.0064,0.0061,0.0059,0.0044,0.0064,0,0,0,0,0,-0.0266,-0.0267,-0.0233,-0.0235,-0.0226,-0.0189,-0.0177,-0.0156,-0.0121,-0.0106,-0.0066,-0.0021,0.002,0.0046,0.0083,0.0118,0.0152,0.0132,0.0129,0.0127,0.0124,0.0182,0.0184,0.016,0.016,0.016,0,0,-0.0279,-0.0265,-0.0266,-0.0242,-0.0222,-0.0211,-0.0181,-0.0166,-0.0153,-0.01,-0.0072,-0.0032,0.0026,0.0062,0.0081,0.0092,0.015,0.0128,0.0125,0.0124,0.0183,0.0185,0.0187,0.0161,0.0161,0.0161,0,0,-0.0306,-0.0293,-0.0302,-0.0284,-0.026,-0.0234,-0.0233,-0.0193,-0.0172,-0.0142,-0.0099,-0.0056,0.0002,0.0049,0.008,0.0089,0.013,0.01,0.0084,0.0139,0.0142,0.0144,0.0179,0.0185,0.0106,0.0106,0.0105,0,-0.0324,-0.0329,-0.03,-0.03,-0.029,-0.0248,-0.025,-0.0219,-0.0171,-0.0153,-0.0142,-0.0048,-0.0002,0.0056,0.0059,0.0084,0.0113,0.0087,0.0135,0.0138,0.0142,0.0177,0.0184,0.0103,0.0103,0.0104,0.0104,0,-0.035,-0.0355,-0.0358,-0.0345,-0.0327,-0.0323,-0.0279,-0.026,-0.0232,-0.0196,-0.0145,-0.008,-0.0023,0.0002,0.0034,0.0084,0.0095,0.0118,0.0137,0.0141,0.0178,0.0186,0.01,0.01,0.0101,0.0102,0,0,-0.039,-0.0381,-0.0385,-0.0389,-0.0352,-0.0343,-0.0318,-0.0283,-0.0268,-0.0214,-0.0185,-0.0107,-0.0073,-0.0035,0.0017,0.0071,0.0118,0.0099,0.0103,0.0124,0.0225,0.0214,0.0223,0.0148,0.0149,0.015,0.0237,0,-0.0423,-0.0447,-0.0423,-0.0436,-0.0441,-0.0393,-0.0376,-0.0334,-0.0291,-0.025,-0.0171,-0.0126,-0.0084,-0.0058,0.0001,0.009,0.014,0.0091,0.0228,0.0232,0.0214,0.0232,0.0155,0.0244,0.0246,0.0247,0.0248,0,-0.0456,-0.0469,-0.0496,-0.0487,-0.0485,-0.0482,-0.0448,-0.0425,-0.035,-0.0315,-0.0249,-0.0185,-0.0096,-0.0066,0.0083,0.0049,0.0127,0.0196,0.0201,0.0216,0.0237,0.0246,0.0264,0.0263,0.0262,0.0261,0.026,0,-0.0505,-0.0517,-0.0546,-0.0542,-0.0523,-0.0525,-0.0512,-0.0453,-0.0432,-0.0356,-0.033,-0.0217,-0.0157,-0.0044,0.0098,0.0092,0.026,0.0273,0.0336,0.0336,0.0342,0.0339,0.0374,0.0374,0.0374,0.0373,0.0373,0,-0.0542,-0.0567,-0.0579,-0.0592,-0.0625,-0.0586,-0.0598,-0.0563,-0.0504,-0.0472,-0.0375,-0.0314,-0.0147,-0.0026,0.009,0.0238,0.0257,0.0334,0.0363,0.0316,0.0309,0.0347,0.0343,0.0377,0.0376,0.0375,0.0375,0,-0.0585,-0.0593,-0.063,-0.0641,-0.0652,-0.0676,-0.0669,-0.0664,-0.0606,-0.0558,-0.0534,-0.0378,-0.0218,-0.0056,0.0146,0.0226,0.0369,0.0417,0.0345,0.0367,0.0405,0.0397,0.0487,0.0487,0.0488,0.0488,0.0488,0,-0.0607,-0.0632,-0.0683,-0.0721,-0.0734,-0.0764,-0.0779,-0.0728,-0.0703,-0.0586,-0.0554,-0.0394,-0.0279,-0.0009,0.0158,0.037,0.0401,0.0458,0.0439,0.0401,0.0419,0.0411,0.0403,0.0489,0.0489,0.0489,0.0489,0,-0.0647,-0.0672,-0.0707,-0.0791,-0.0831,-0.086,-0.0866,-0.0851,-0.0764,-0.0714,-0.0553,-0.0395,-0.0212,-0.0,0.0166,0.032,0.0411,0.0463,0.0463,0.0445,0.0404,0.042,0.0412,0.049,0.049,0.049,0.049,0,-0.0681,-0.0724,-0.0783,-0.0848,-0.0907,-0.0929,-0.0927,-0.0865,-0.0821,-0.0666,-0.0609,-0.0399,-0.0257,-0.0025,0.0133,0.0277,0.0308,0.0338,0.0345,0.0345,0.0277,0.0202,0.0254,0,0,0,0,0,-0.0711,-0.0763,-0.0834,-0.0899,-0.0954,-0.0982,-0.0966,-0.0937,-0.0848,-0.0741,-0.0666,-0.0485,-0.0216,-0.0087,0.0054,0.0112,0.0306,0.0279,0.0336,0.0498,0.0496,0.0439,0,0,0,0,0,0,-0.0734,-0.0809,-0.0841,-0.0922,-0.0973,-0.1017,-0.1009,-0.0949,-0.0865,-0.0756,-0.0607,-0.0483,-0.0222,-0.0309,0.0044,0.0092,0.0141,0.0421,0.0423,0.0499,0.0497,0.0496,0.0437,0,0,0,0,0]}]]